TimeAKST,TemperatureF,Dew PointF,Humidity,Sea Level PressureIn,VisibilityMPH,Wind Direction,Wind SpeedMPH,Gust SpeedMPH,PrecipitationIn,Events,Conditions,WindDirDegrees,DateUTC
12:16 AM,30.2,26.6,86,29.64,10.0,NNW,4.6,-,N/A,,Scattered Clouds,340,2012-01-03 09:16:00
12:36 AM,28.4,26.6,93,29.63,10.0,NNW,4.6,-,N/A,,Mostly Cloudy,330,2012-01-03 09:36:00
12:56 AM,28.4,24.8,86,29.63,10.0,NW,4.6,-,N/A,,Partly Cloudy,320,2012-01-03 09:56:00
1:16 AM,30.2,24.8,80,29.64,10.0,NNW,5.8,-,N/A,,Clear,330,2012-01-03 10:16:00
1:36 AM,30.2,24.8,80,29.63,10.0,NW,5.8,-,N/A,,Clear,320,2012-01-03 10:36:00
1:56 AM,30.2,24.8,80,29.62,10.0,NW,5.8,-,N/A,,Clear,320,2012-01-03 10:56:00
2:16 AM,28.4,24.8,86,29.61,10.0,North,4.6,-,N/A,,Clear,350,2012-01-03 11:16:00
2:36 AM,28.4,24.8,86,29.60,10.0,NNW,6.9,-,N/A,,Clear,330,2012-01-03 11:36:00
2:56 AM,30.2,26.6,86,29.59,10.0,NNW,10.4,-,N/A,,Clear,340,2012-01-03 11:56:00
3:16 AM,30.2,26.6,86,29.58,10.0,NNW,9.2,-,N/A,,Mostly Cloudy,340,2012-01-03 12:16:00
3:36 AM,30.2,26.6,86,29.56,10.0,NNW,11.5,-,N/A,,Overcast,340,2012-01-03 12:36:00
3:56 AM,30.2,26.6,86,29.55,10.0,NNW,9.2,-,N/A,,Scattered Clouds,330,2012-01-03 12:56:00
4:16 AM,28.4,26.6,93,29.54,10.0,NNW,6.9,-,N/A,,Mostly Cloudy,330,2012-01-03 13:16:00
4:36 AM,28.4,24.8,86,29.53,10.0,NW,5.8,-,N/A,,Overcast,320,2012-01-03 13:36:00
5:16 AM,28.4,24.8,86,29.50,10.0,NNW,8.1,-,N/A,,Overcast,330,2012-01-03 14:16:00
5:36 AM,26.6,24.8,93,29.49,10.0,NNW,6.9,-,N/A,,Partly Cloudy,330,2012-01-03 14:36:00
5:56 AM,26.6,24.8,93,29.48,10.0,NNW,6.9,-,N/A,,Clear,330,2012-01-03 14:56:00
6:16 AM,26.6,24.8,93,29.46,10.0,NNW,5.8,-,N/A,,Mostly Cloudy,340,2012-01-03 15:16:00
6:36 AM,26.6,24.8,93,29.44,10.0,NNW,5.8,-,N/A,,Overcast,340,2012-01-03 15:36:00
6:56 AM,26.6,24.8,93,29.43,10.0,NNW,8.1,-,N/A,,Overcast,330,2012-01-03 15:56:00
7:16 AM,26.6,24.8,93,29.41,10.0,NNW,8.1,-,N/A,,Overcast,340,2012-01-03 16:16:00
7:36 AM,26.6,24.8,93,29.41,10.0,NNW,8.1,-,N/A,,Overcast,340,2012-01-03 16:36:00
7:56 AM,28.4,24.8,86,29.40,10.0,NNW,5.8,-,N/A,,Overcast,340,2012-01-03 16:56:00
8:16 AM,28.4,24.8,86,29.39,10.0,Calm,Calm,-,N/A,,Overcast,0,2012-01-03 17:16:00
8:36 AM,28.4,24.8,86,29.38,10.0,Calm,Calm,-,N/A,,Overcast,0,2012-01-03 17:36:00
8:56 AM,28.4,24.8,86,29.35,10.0,North,3.5,-,N/A,,Overcast,360,2012-01-03 17:56:00
9:16 AM,28.4,24.8,86,29.33,10.0,NW,4.6,-,N/A,,Overcast,320,2012-01-03 18:16:00
9:36 AM,30.2,24.8,80,29.31,10.0,NNE,3.5,-,N/A,,Overcast,20,2012-01-03 18:36:00
9:56 AM,28.4,24.8,86,29.28,10.0,North,3.5,-,N/A,,Overcast,360,2012-01-03 18:56:00
10:16 AM,30.2,24.8,80,29.27,10.0,NE,3.5,-,N/A,,Overcast,40,2012-01-03 19:16:00
10:36 AM,30.2,24.8,80,29.26,10.0,NE,3.5,-,N/A,,Overcast,40,2012-01-03 19:36:00
10:56 AM,30.2,24.8,80,29.24,10.0,ENE,3.5,-,N/A,,Overcast,70,2012-01-03 19:56:00
11:16 AM,30.2,24.8,80,29.23,10.0,East,3.5,-,N/A,,Overcast,90,2012-01-03 20:16:00
11:36 AM,30.2,24.8,80,29.22,10.0,Calm,Calm,-,N/A,,Overcast,0,2012-01-03 20:36:00
11:56 AM,30.2,24.8,80,29.20,10.0,Calm,Calm,-,N/A,,Overcast,0,2012-01-03 20:56:00
12:16 PM,30.2,24.8,80,29.19,10.0,Calm,Calm,-,N/A,,Overcast,0,2012-01-03 21:16:00
12:36 PM,30.2,24.8,80,29.19,10.0,Calm,Calm,-,N/A,,Overcast,0,2012-01-03 21:36:00
12:56 PM,30.2,26.6,86,29.19,2.5,Calm,Calm,-,N/A,,Overcast,0,2012-01-03 21:56:00
1:16 PM,30.2,26.6,86,29.19,0.5,Calm,Calm,-,N/A,,Overcast,0,2012-01-03 22:16:00
1:36 PM,30.2,26.6,86,29.19,0.2,Calm,Calm,-,N/A,,Overcast,0,2012-01-03 22:36:00
1:56 PM,30.2,26.6,86,29.17,0.2,Calm,Calm,-,N/A,,Overcast,0,2012-01-03 22:56:00
2:16 PM,30.2,26.6,86,29.17,0.8,Calm,Calm,-,N/A,,Overcast,0,2012-01-03 23:16:00
2:36 PM,30.2,26.6,86,29.17,1.0,Calm,Calm,-,N/A,,Overcast,0,2012-01-03 23:36:00
2:56 PM,30.2,26.6,86,29.18,2.5,Calm,Calm,-,N/A,,Overcast,0,2012-01-03 23:56:00
3:16 PM,30.2,26.6,86,29.18,1.5,Calm,Calm,-,N/A,,Overcast,0,2012-01-04 00:16:00
3:36 PM,30.2,26.6,86,29.18,1.5,Calm,Calm,-,N/A,,Overcast,0,2012-01-04 00:36:00
3:56 PM,30.2,26.6,86,29.19,3.0,Calm,Calm,-,N/A,,Overcast,0,2012-01-04 00:56:00
4:36 PM,30.2,26.6,86,29.18,1.5,Calm,Calm,-,N/A,,Overcast,0,2012-01-04 01:36:00
4:56 PM,30.2,26.6,86,29.19,5.0,Calm,Calm,-,N/A,,Overcast,0,2012-01-04 01:56:00
5:16 PM,30.2,26.6,86,29.19,2.0,Calm,Calm,-,N/A,,Overcast,0,2012-01-04 02:16:00
5:36 PM,30.2,28.4,93,29.19,1.0,Calm,Calm,-,N/A,,Overcast,0,2012-01-04 02:36:00
5:56 PM,30.2,28.4,93,29.19,1.8,Calm,Calm,-,N/A,,Overcast,0,2012-01-04 02:56:00
6:16 PM,30.2,28.4,93,29.19,1.2,Calm,Calm,-,N/A,,Overcast,0,2012-01-04 03:16:00
6:36 PM,30.2,28.4,93,29.19,1.2,Calm,Calm,-,N/A,,Overcast,0,2012-01-04 03:36:00
6:56 PM,30.2,28.4,93,29.19,1.2,Calm,Calm,-,N/A,,Overcast,0,2012-01-04 03:56:00
7:16 PM,30.2,28.4,93,29.19,1.5,Calm,Calm,-,N/A,,Overcast,0,2012-01-04 04:16:00
7:36 PM,30.2,28.4,93,29.20,2.0,Calm,Calm,-,N/A,,Overcast,0,2012-01-04 04:36:00
7:56 PM,30.2,28.4,93,29.21,1.2,Calm,Calm,-,N/A,,Overcast,0,2012-01-04 04:56:00
8:16 PM,30.2,28.4,93,29.20,3.0,Calm,Calm,-,N/A,,Overcast,0,2012-01-04 05:16:00
8:36 PM,30.2,28.4,93,29.20,4.0,Calm,Calm,-,N/A,,Mostly Cloudy,0,2012-01-04 05:36:00
8:56 PM,30.2,28.4,93,29.19,5.0,Calm,Calm,-,N/A,,Overcast,0,2012-01-04 05:56:00
9:16 PM,32.0,30.2,93,29.19,10.0,Calm,Calm,-,N/A,,Overcast,0,2012-01-04 06:16:00
9:36 PM,33.8,30.2,87,29.19,6.0,Calm,Calm,-,N/A,,Overcast,0,2012-01-04 06:36:00
9:56 PM,33.8,30.2,87,29.18,5.0,Calm,Calm,-,N/A,,Overcast,0,2012-01-04 06:56:00
10:16 PM,33.8,30.2,87,29.17,10.0,Calm,Calm,-,N/A,,Overcast,0,2012-01-04 07:16:00
10:36 PM,33.8,30.2,87,29.17,10.0,Calm,Calm,-,N/A,,Mostly Cloudy,0,2012-01-04 07:36:00
10:56 PM,33.8,30.2,87,29.16,10.0,Calm,Calm,-,N/A,,Overcast,0,2012-01-04 07:56:00
11:16 PM,33.8,30.2,87,29.15,10.0,Calm,Calm,-,N/A,,Overcast,0,2012-01-04 08:16:00
11:36 PM,33.8,30.2,87,29.14,10.0,NNW,8.1,-,N/A,,Mostly Cloudy,330,2012-01-04 08:36:00
11:56 PM,33.8,30.2,87,29.13,10.0,NW,6.9,-,N/A,,Mostly Cloudy,310,2012-01-04 08:56:00